India Forums Logo

Punar Vivah

India Forums > Forum Index > Punar Vivah
Punar Vivah is based on the concept of remarriage in which couple also has kids with their previous marriage. This show represents a love story with a contrast.
...
<< | 12 | 13 | 14 | 15 | 16 | 17 | 18 | 19 | 20 | 21 | 22 | 23 | 24 | 25 | 26 | 27 | 28 | 29 | 30 | ... >>
TIDTopic SubjectStart DateLast Entry
2907188New TB: PLEASE COMMENT!!!3/28/2012 11:34:49 AM3/28/2012 10:56:49 PM
2907217Yash heard conversation3/28/2012 11:44:55 AM3/28/2012 12:22:20 PM
2907229Yash Aarti and Prashant.all at the temple!3/28/2012 11:47:54 AM3/29/2012 7:24:51 AM
2907248Abhiya n ArYa Mix Creation..3/28/2012 11:52:54 AM5/15/2012 11:03:03 AM
2907249Misleading?3/28/2012 11:53:17 AM3/28/2012 10:04:52 PM
2907279GOOD vs EVIL3/28/2012 12:00:36 PM3/28/2012 1:15:00 PM
2907296I was shocked3/28/2012 12:08:04 PM3/29/2012 6:52:34 AM
2907316precap:-Dhamaka no @2@3/28/2012 12:15:01 PM3/28/2012 6:55:53 PM
2907336May be!3/28/2012 12:22:53 PM3/28/2012 1:41:32 PM
2907339ALL ArYa Vmz,,till yet3/28/2012 12:24:45 PM3/29/2012 1:56:19 AM
290735928th Mar Punar Vivah Video+Precap+3rd Promo WO/DL3/28/2012 12:40:25 PM3/28/2012 5:06:40 PM
2907390plzz do vote for gurmeet3/28/2012 1:00:23 PM3/29/2012 12:10:58 AM
2907580Y & A3/28/2012 6:45:17 PM3/30/2012 8:58:21 AM
2907649Yash will misunderstand Aarti?3/28/2012 10:04:52 PM3/28/2012 10:04:52 PM
2907760Punar Vivah: What's the appeal?3/29/2012 12:28:50 AM3/29/2012 10:23:55 AM
2907781UK watchers of Punar Vivah... Pls take note3/29/2012 12:50:22 AM3/29/2012 3:14:53 PM
2907808hw it's possible?????3/29/2012 1:30:05 AM3/29/2012 2:47:32 AM
2907839Meeting in Mandir3/29/2012 2:09:09 AM3/29/2012 2:35:18 AM
2907859So many stars coming...3/29/2012 2:32:20 AM3/29/2012 2:46:22 AM
2907881IBN7: Rain of TV stars in Sangeet ceremony [Updtd]3/29/2012 2:53:33 AM3/29/2012 7:37:38 AM
2907884SBB & SBS3/29/2012 2:55:33 AM3/29/2012 3:10:54 AM
2907885SBS-SBB:Stars at AarYa Sangeet:Updt-Pics-Vid Pg1-23/29/2012 2:57:20 AM3/29/2012 3:11:05 PM
2907901THANKS ZEE3/29/2012 3:18:18 AM3/29/2012 3:24:10 PM
290790729March Punar VivahShadi Spl SBB-SBS Segment WO/DL3/29/2012 3:20:50 AM3/29/2012 9:00:28 PM
2907923ArYa Mix Creation...3/29/2012 3:36:13 AM3/31/2012 2:57:48 PM
2907975gurmeet tweet corner3/29/2012 4:03:11 AM3/29/2012 8:31:07 AM
2908069Celebrities galore at Punar Vivah!3/29/2012 5:01:49 AM3/29/2012 7:13:17 AM
2908097ab aage kya hoga...3/29/2012 5:31:51 AM3/29/2012 3:07:59 PM
2908115To all those 114 people...3/29/2012 5:53:26 AM4/4/2012 6:04:08 AM
2908139Yash prashant takkar3/29/2012 6:24:03 AM3/29/2012 6:37:22 AM
290816629/3 PV Status on FB ! Reason to cheer :D3/29/2012 6:50:44 AM3/29/2012 3:06:24 PM
2908206gurmeet shweta look more hot than gurmeet kratika3/29/2012 7:30:41 AM3/29/2012 11:19:21 PM
2908244Article Removed3/29/2012 7:54:10 AM3/29/2012 3:46:48 PM
2908262TB:TV stars perform with Rockstar Nargis:GC-PV tag3/29/2012 8:03:12 AM3/29/2012 10:17:34 AM
2908286Prashant track- My View3/29/2012 8:13:12 AM4/1/2012 1:47:36 AM
2908304COMMENT...COMMENT ...COMMENT3/29/2012 8:25:22 AM3/29/2012 8:28:43 AM
2908328GURU/KS rockinggg/PV rockinggg3/29/2012 8:41:41 AM3/29/2012 6:18:20 PM
2908354Kratika offscreen spoiler Pic3/29/2012 8:55:11 AM3/29/2012 9:49:47 PM
290866029/3 Analysis Unit: Prashant Karega Kanyadaan3/29/2012 10:52:18 AM3/30/2012 10:39:48 AM
2908685SCARED OR WHAT???3/29/2012 11:00:16 AM3/29/2012 11:00:16 AM
2908741Prashant showed his true colours3/29/2012 11:26:14 AM3/29/2012 1:38:29 PM
2908790PARESHAN -- T !3/29/2012 11:52:34 AM3/30/2012 10:34:27 AM
2908796Did Scindia treated Arpita also like this..3/29/2012 11:54:29 AM4/1/2012 9:19:46 AM
2908801AarYa : Trying to unravel the mystery of Fate?3/29/2012 11:57:03 AM3/30/2012 2:16:35 AM
2908816*PV WU(29 march 2012)*3/29/2012 12:00:40 PM3/30/2012 7:59:09 AM
2908820Unspoken--Yash understood Arti3/29/2012 12:03:11 PM3/29/2012 10:28:12 PM
2908822hats off to cv's3/29/2012 12:04:00 PM3/29/2012 1:19:01 PM
2908824ALL IS WELL With ARYA-Sangeeth shuru3/29/2012 12:06:11 PM3/29/2012 10:58:36 PM
290884829th Mar Punar Vivah Video+Precap+SBB+SBS WO/DL3/29/2012 12:19:43 PM3/29/2012 10:06:03 PM
29090051 Minute for CANCER AWARENESS - can u CONTRIBUTE?3/29/2012 2:43:28 PM3/29/2012 2:43:28 PM
2909022Aarti will fall first for Yash3/29/2012 2:59:20 PM3/29/2012 8:46:02 PM
2909045Should one continue in a loveless marriage3/29/2012 3:41:12 PM3/30/2012 8:25:22 PM
2909089Aarti and yash3/29/2012 4:52:43 PM3/29/2012 7:55:17 PM
2909092Aarti and yash3/29/2012 4:56:22 PM3/29/2012 8:05:03 PM
2909132This parshant...3/29/2012 7:23:47 PM3/29/2012 7:51:17 PM
2909168Big Blooper about Prashant Aarti's Name on Temple3/29/2012 8:46:06 PM3/30/2012 10:19:14 AM
2909176Shame on you Aarti...3/29/2012 9:13:20 PM3/30/2012 2:54:58 PM
2909190Please vote for GC3/29/2012 9:42:16 PM3/30/2012 3:49:26 AM
2909192Arya pics3/29/2012 9:45:16 PM3/30/2012 10:20:49 AM
2909218where??? & when????3/29/2012 10:23:47 PM3/29/2012 10:23:47 PM
2909246Puner Vivah episode (03/29/2012)... With Eva3/29/2012 10:57:02 PM3/30/2012 12:28:35 PM
2909251Some pics of Gurmeet3/29/2012 10:59:39 PM3/30/2012 11:24:56 AM
2909374~:))~Happy Birthday Ravjot~:))~3/30/2012 1:48:51 AM3/30/2012 11:37:36 AM
2909458yash have to do this3/30/2012 3:15:13 AM3/30/2012 10:06:09 AM
2909459Sangeet xcited!!! hUM SAATH SAATH HAI IN PV3/30/2012 3:15:32 AM3/30/2012 2:45:04 PM
290947630th March Punar VivahShadi Spl SBB Segment WO/DL3/30/2012 3:31:16 AM3/31/2012 11:24:57 AM
29095013 New Promos & SBB:AarYa's Sangeet-Wedding dances3/30/2012 3:42:45 AM3/30/2012 4:15:37 PM
2909548competition is on3/30/2012 4:07:17 AM3/30/2012 2:21:25 PM
2909650Guys comment on all Tagged articles and videos3/30/2012 5:03:35 AM3/30/2012 12:55:45 PM
2909693Bua in precap!3/30/2012 5:20:24 AM3/30/2012 11:28:51 AM
2909704snow white scene!3/30/2012 5:26:32 AM3/30/2012 1:23:59 PM
2909737new FF khamoshi updated29/07/20123/30/2012 6:08:54 AM11/17/2012 11:20:29 AM
2909816Punar Vivah-Zee Tv's popular show3/30/2012 7:23:47 AM3/31/2012 3:15:42 PM
2909848\|/ Happy Shri Ram Navami! \|/3/30/2012 7:41:00 AM3/31/2012 1:10:04 PM
2909885Once again love3/30/2012 8:05:39 AM3/30/2012 11:26:15 AM
<< | 12 | 13 | 14 | 15 | 16 | 17 | 18 | 19 | 20 | 21 | 22 | 23 | 24 | 25 | 26 | 27 | 28 | 29 | 30 | ... >>